Location: Kergonan
(48.2337°N, 4.5518°W)
Time: 22:03:25
(UTC+00:00)

BREEZE-M DEB (TANK) - Pass Details

Date: 18 January 2020
Orbit: 277 x 13110 km, 49.6° (Epoch: 28 February)

Event Time Altitude Azimuth Distance (km) Brightness Sun altitude
Exits shadow 06:52:48 13° 263° (W) 1,751 4.3 -11.3°
Maximum altitude 06:56:17 84° 352° (N) 1,027 3.6 -10.8°
Drops below altitude 10° 07:10:11 10° 82° (E) 6,368 8.8 -8.6°
Sets 07:19:25 0° 84° (E) 9,531 9.8 -7.2°
